Christchurch, New Zealand

6:03 PM NZST on April 24, 2017 (GMT +1200)
Christchurch International

Weather History for NZCH - March, 2013

Change the Weather History Date:

Wednesday, March 6, 2013

  Actual Average Record
Temperature  
Mean Temperature 65 °F -  
Max Temperature 84 °F 68 °F 86 °F (2007)
Min Temperature 46 °F 50 °F 39 °F (2006)
Growing Degree Days 15 (Base 50)    
Moisture  
Dew Point 46 °F    
Average Humidity 65    
Maximum Humidity 93    
Minimum Humidity 18    
Precipitation  
Precipitation 0.00 in - - ()
Sea Level Pressure  
Sea Level Pressure 29.86 in    
Wind  
Wind Speed 7 mph ()    
Max Wind Speed 28 mph    
Max Gust Speed 34 mph    
Visibility 6.2 miles    
Events      
Averages and records for this station are not official NWS values.
T = Trace of Precipitation, MM = Missing Value Source: Averaged Metar Reports

Daily Weather History Graph

Daily Weather History Graph

Search for Another Location

Airport or City:

Trip Planner

Search our weather history database for the weather conditions in past years. The results will help you decide how hot, cold, wet, or windy it might be!

Date:

Astronomy

Mar. 06, 2013 Rise Set
Actual Time 7:14 AM NZDT 8:06 PM NZDT
Civil Twilight 6:45 AM NZDT 8:35 PM NZDT
Nautical Twilight 6:10 AM NZDT 9:10 PM NZDT
Astronomical Twilight 5:34 AM NZDT 9:46 PM NZDT
Moon 12:43 AM NZDT (3/6) 4:00 PM NZDT (3/6)
Length of Visible Light 13h 50m
Length of Day
12h 52m
Last Quarter, 38% of the Moon is Illuminated
Mar 6
Last Quarter
Mar 12
New
Mar 20
First Quarter
Mar 27
Full
Apr 3
Last Quarter

Hourly Weather History & Observations

Time (NZDT) Temp. Windchill Dew Point Humidity Pressure Visibility Wind Dir Wind Speed Gust Speed Precip Events Conditions
12:00 AM 55.4 °F - 44.6 °F 67% 29.89 in - NE 10.4 mph - N/A   Clear
1:00 AM 53.6 °F - 44.6 °F 72% 29.86 in - NE 8.1 mph - N/A   Clear
2:00 AM 53.6 °F - 46.4 °F 77% 29.83 in - East 4.6 mph - N/A   Clear
3:00 AM 53.6 °F - 46.4 °F 77% 29.80 in - ENE 1.2 mph - N/A   Clear
4:00 AM 48.2 °F - 42.8 °F 82% 29.77 in - SW 3.5 mph - N/A   Clear
5:00 AM 48.2 °F - 44.6 °F 87% 29.77 in - West 2.3 mph - N/A   Clear
6:00 AM 46.4 °F 45.2 °F 42.8 °F 87% 29.77 in - North 3.5 mph - N/A   Clear
7:00 AM 48.2 °F - 44.6 °F 87% 29.77 in - NNW 2.3 mph - N/A   Clear
8:00 AM 48.2 °F - 46.4 °F 93% 29.77 in - North 2.3 mph - N/A   Clear
9:00 AM 57.2 °F - 53.6 °F 88% 29.80 in - North 1.2 mph - N/A   Clear
10:00 AM 64.4 °F - 51.8 °F 64% 29.80 in - NNE 2.3 mph - N/A   Clear
11:00 AM 73.4 °F - 42.8 °F 33% 29.80 in - North 4.6 mph - N/A   Clear
12:00 PM 78.8 °F - 41.0 °F 26% 29.80 in - ENE 3.5 mph - N/A   Clear
1:00 PM 80.6 °F - 37.4 °F 21% 29.80 in - NE 3.5 mph - N/A   Clear
2:00 PM 84.2 °F - 35.6 °F 18% 29.77 in - SSE 4.6 mph - N/A   Clear
3:00 PM 78.8 °F - 42.8 °F 28% 29.80 in - South 17.3 mph 34.5 mph N/A   Clear
4:00 PM 68.0 °F - 50.0 °F 52% 29.83 in 6.2 mi South 23.0 mph - N/A   Partly Cloudy
5:00 PM 62.6 °F - 53.6 °F 72% 29.89 in 6.2 mi SSW 27.6 mph - N/A   Scattered Clouds
6:00 PM 60.8 °F - 51.8 °F 72% 29.95 in 6.2 mi SSW 23.0 mph - N/A   Scattered Clouds
7:00 PM 59.0 °F - 48.2 °F 67% 30.01 in 6.2 mi SSW 20.7 mph - N/A   Scattered Clouds
8:00 PM 57.2 °F - 46.4 °F 67% 30.01 in 6.2 mi South 16.1 mph - N/A   Mostly Cloudy
9:00 PM 57.2 °F - 46.4 °F 67% 30.04 in 6.2 mi SSW 17.3 mph - N/A   Mostly Cloudy
10:00 PM 55.4 °F - 46.4 °F 72% 30.09 in 6.2 mi South 17.3 mph - N/A   Light Drizzle
11:00 PM 53.6 °F - 46.4 °F 77% 30.12 in 6.2 mi South 12.7 mph - N/A   Light Drizzle